Terminal Aerodrome Forecast
Issued by NWS Wichita, KS

Home | Current Version | Previous Version | Graphics & Text | Print | Product List | Glossary On
Versions: 1 2 3 4 5 6 7 8 9 10 11 12 13 14 15 16 17
000
FTUS43 KICT 302046 AAB
TAFICT
TAF AMD
KICT 302046Z 3021/3118 35014KT P6SM SCT020 BKN035
     FM310100 02007KT P6SM SCT020 BKN030
     FM310900 01005KT 5SM BR SCT007 BKN020
     FM311600 05007KT P6SM SCT020 BKN035=

USA.gov is the U.S. government's official web portal to all federal, state and local government web resources and services.